Home > Weather > Patras > Past weeks

Flag for Greece Past Weather in Patras, Greece — Yesterday and Last 2 Weeks

Now
75 °F

Clear.


Feels Like: 75 °F
Forecast: 69 / 94 °F
Wind: No wind

Location: Araxos Airport

Current Time: Jul 1, 2016 at 11:48:56 PM

Latest Report: Jul 1, 2016 at 10:50 PM


Visibility: 10 mi

Pressure: 29.98 "Hg

Humidity: 83%

Dew Point: 70 °F

Location of PatrasLocation

Past Weather in Patras — Graph

°F

Patras Temperature Yesterday

Maximum temperature yesterday: 86 °F (at 12:50 PM)
Minimum temperature yesterday: 68 °F (at 4:50 AM)
Average temperature yesterday: 80 °F

High & Low Weather Summary for the Past Weeks

 TemperatureHumidityPressure
High99 °F (Jun 21, 3:20 PM)100% (Jun 22, 2:50 AM)30.15 "Hg (Jun 22, 2:50 AM)
Low64 °F (Jun 17, 5:50 AM)22% (Jun 22, 1:50 PM)29.71 "Hg (Jun 25, 6:50 AM)
Average82 °F62%29.90 "Hg
* Reported Jun 16 10:50 PM — Jul 1 10:50 PM, Patras, Weather by CustomWeather, © 2016

Note: Actual official high and low records may vary slightly from our data, if they occured in-between our weather recording intervals... More about our weather records

Advertising

Patras Weather History for the Previous 24 Hours

Scroll right to see more
 ConditionsComfort  
Time TempWeatherWind HumidityBarometerVisibility
10:50 PM
Fri, Jul 1
75 °FClear.No wind83%29.98 "Hg10 mi
9:50 PM77 °FSunny.No wind79%29.98 "Hg10 mi
8:50 PM79 °FPassing clouds.No wind74%29.95 "HgN/A
8:20 PM79 °FPassing clouds.No wind74%29.95 "HgN/A
7:50 PM81 °FPassing clouds.No wind66%29.95 "HgN/A
7:20 PM82 °FPassing clouds.5 mph66%29.95 "HgN/A
6:50 PM82 °FPassing clouds.6 mph62%29.95 "HgN/A
6:20 PM84 °FPassing clouds.5 mph51%29.98 "HgN/A
5:50 PM86 °FPassing clouds.5 mph46%29.98 "HgN/A
5:20 PM86 °FPassing clouds.5 mph43%29.98 "HgN/A
4:50 PM86 °FPassing clouds.5 mph43%29.98 "HgN/A
4:20 PM84 °FPassing clouds.7 mph48%29.98 "HgN/A
3:50 PM84 °FPassing clouds.7 mph45%29.98 "HgN/A
3:20 PM84 °FPassing clouds.8 mph51%29.98 "HgN/A
2:50 PM84 °FPassing clouds.8 mph51%29.98 "HgN/A
2:20 PM82 °FPassing clouds.8 mph55%29.98 "HgN/A
1:50 PM84 °FPassing clouds.8 mph51%30.01 "HgN/A
12:50 PM84 °FPassing clouds.6 mph51%30.01 "HgN/A
12:20 PM84 °FSunny.6 mph51%30.01 "Hg10 mi
11:50 AM82 °FSunny.6 mph55%30.01 "Hg10 mi
11:20 AM82 °FSunny.6 mph55%30.01 "Hg10 mi
10:50 AM82 °FSunny.3 mph58%30.01 "Hg10 mi
10:20 AM82 °FSunny.No wind58%30.01 "Hg10 mi
9:50 AM81 °FSunny.No wind58%30.01 "Hg10 mi
9:20 AM79 °FSunny.No wind65%30.01 "Hg10 mi
8:50 AM77 °FSunny.No wind79%30.01 "Hg10 mi
8:20 AM75 °FSunny.No wind83%30.01 "Hg10 mi
7:50 AM75 °FSunny.No wind83%30.01 "Hg10 mi
7:20 AM70 °FSunny.No wind94%30.01 "Hg10 mi
6:50 AM68 °FClear.No wind94%30.01 "Hg10 mi
6:20 AM66 °FClear.No wind100%30.01 "Hg10 mi
5:50 AM68 °FClear.No wind94%30.01 "Hg10 mi
4:50 AM68 °FClear.No wind94%30.01 "Hg10 mi
3:50 AM68 °FClear.No wind94%29.98 "Hg10 mi
2:50 AM70 °FClear.No wind88%29.98 "Hg10 mi
12:50 AM72 °FClear.No wind88%30.01 "Hg10 mi
11:50 PM
Thu, Jun 30
73 °FClear.No wind83%30.01 "Hg10 mi
Weather by CustomWeather, © 2016

See weather overviewHow to use our weather pages